Overview Statistics Trail Chart Weather Telemetry Raw packets
 

This is the latest recevied weather packets stored in our database for station/object HI3RRR-13. If no packets are shown the sender has not sent any weather packets the latest 10 day(s).

<< 51 52 53 54 55 56 57 >>
Time Temp. Humidity Pressure Rain* Wind** Luminosity Snow
1787859615 34.44° C 49% 1013 hPa 0 mm - - -
1787859014 34.44° C 49% 1013 hPa 0 mm - - -
1787858412 34.44° C 49% 1013 hPa 0 mm - - -
1787857811 34.44° C 49% 1013 hPa 0 mm - - -
1787857276 34.44° C 49% 1013 hPa 0 mm - - -
1787856675 34.44° C 49% 1013 hPa 0 mm - - -
1787856074 34.44° C 49% 1013 hPa 0 mm - - -
1787855473 34.44° C 49% 1013 hPa 0 mm - - -
1787854872 34.44° C 49% 1013 hPa 0 mm - - -
1787854271 34.44° C 49% 1013 hPa 0 mm - - -
1787853670 33.33° C 54% 1013 hPa 0 mm - - -
1787853069 33.89° C 58% 1013 hPa 0 mm - - -
1787852072 33.33° C 52% 1013 hPa 0 mm - - -
1787851471 33.33° C 52% 1014 hPa 0 mm - - -
1787850870 33.33° C 52% 1014 hPa 0 mm - - -
1787850272 33.33° C 52% 1014 hPa 0 mm - - -
1787849669 31.67° C 58% 1014 hPa 0 mm - - -
1787849068 31.67° C 58% 1014 hPa 0 mm - - -
1787848467 31.67° C 58% 1014 hPa 0 mm - - -
1787847866 31.67° C 58% 1015 hPa 0 mm - - -
1787847265 31.67° C 60% 1015 hPa 0 mm - - -
1787846664 32.22° C 63% 1015 hPa 0 mm - - -
1787846063 34.44° C 74% 1015 hPa 0 mm - - -
1787845462 34.44° C 74% 1015 hPa 0 mm - - -
1787844861 34.44° C 74% 1015 hPa 0 mm - - -

* Rain latest hour (hover to see other rain measurements)
** Current wind speed in m/s (hover to see current wind gust speed)